Temperature
24 24 23 23 22 21 23 25 26 26 26 26 26 25 24 23 22 20 20 20 21 21 20 20 20 20 20 20 20 20 20 19 19 19 19 19 19 19 19 19 19 19 18 18 18 18 18 18 18
25 24 24 23 21 22 24 25 26 26 26 26 25 25 23 21 20 19 20 21 21 21 20 20 20 20 20 20 20 19 19 19 19 19 19 19 19 19 18 18 18 18 18 18 18 18 18 18 18
25 24 23 21 22 22 24 26 26 26 26 26 25 25 24 22 20 20 21 21 21 21 20 20 20 20 20 20 19 19 19 19 19 19 19 19 19 18 18 18 18 18 18 18 18 18 18 18 17
25 24 23 21 23 24 25 26 26 26 26 25 25 24 23 22 22 21 21 21 21 21 20 20 20 20 20 20 19 19 19 19 19 19 19 19 18 18 18 18 18 18 18 18 18 18 18 17 17
25 24 21 22 23 25 26 27 27 26 25 25 24 23 22 22 22 21 21 21 21 21 20 20 20 20 20 20 19 19 19 19 19 18 18 19 18 18 18 18 18 18 18 18 18 18 18 17 17
25 22 21 22 24 26 27 27 27 25 24 24 23 22 21 21 22 21 21 21 22 21 21 20 20 20 20 20 19 19 19 19 19 19 19 18 18 18 18 18 18 18 18 18 18 18 18 17 17
24 21 22 23 25 26 27 27 26 25 25 24 24 22 21 20 22 21 21 22 21 21 21 20 20 20 20 20 20 19 19 19 19 19 19 18 18 18 18 18 18 18 18 18 18 18 18 17 17
26 22 23 23 25 26 27 27 26 25 25 25 24 22 21 21 21 21 21 21 21 21 21 21 20 20 20 20 19 19 19 19 19 18 18 18 18 18 18 18 18 18 18 18 18 18 18 17 17
27 22 22 24 25 26 27 26 26 26 25 24 24 24 22 21 21 21 20 20 21 21 21 21 20 20 20 20 19 19 19 19 19 18 18 18 18 18 18 18 18 18 18 18 18 18 18 17 17
26 22 24 26 27 27 28 27 26 25 24 24 23 23 22 22 21 21 21 21 20 20 21 21 21 20 20 20 19 19 19 19 19 18 18 18 18 18 18 18 18 18 18 18 18 18 18 18 17
26 25 26 28 28 29 28 27 26 25 23 23 23 23 22 22 22 21 21 21 21 21 21 20 20 20 20 20 20 19 19 19 19 18 18 18 18 18 18 18 18 18 18 18 18 18 18 18 17
27 27 28 29 29 29 28 28 26 26 25 25 25 24 23 22 22 22 21 21 21 21 21 21 20 20 20 20 20 19 19 19 19 18 18 18 18 18 18 18 18 18 18 18 18 18 18 18 18
27 27 29 29 29 29 29 28 27 26 26 25 24 24 23 23 23 22 22 21 21 21 21 21 20 20 20 20 20 19 19 19 19 18 18 18 18 18 18 18 18 18 18 18 18 18 18 18 18
27 28 28 29 29 29 28 27 26 26 25 24 24 24 24 23 23 22 22 22 21 21 21 20 20 20 20 19 19 19 19 19 19 18 18 18 18 18 18 18 18 18 18 18 18 18 18 18 18
28 27 26 27 28 29 28 26 25 26 25 24 23 24 24 24 24 23 23 22 22 21 21 20 20 20 20 19 19 19 19 19 19 19 18 18 18 18 18 18 18 18 18 18 18 18 18 18 18
26 26 26 27 28 28 27 25 25 26 25 24 24 24 24 24 24 23 23 22 22 21 21 20 20 20 19 19 19 19 19 19 19 19 18 18 18 18 18 18 18 18 18 18 18 18 18 18 18
24 25 26 26 28 28 26 25 25 26 25 24 24 24 23 24 23 23 23 23 22 22 21 20 20 20 20 19 19 19 19 19 19 18 18 18 18 18 18 18 18 18 18 18 18 18 18 18 18
24 25 26 26 28 28 26 25 25 25 25 24 24 24 23 23 23 23 23 23 22 22 21 20 20 20 20 19 19 19 19 18 18 18 18 18 18 18 18 18 18 18 18 18 18 18 18 17 18
25 26 26 27 28 28 26 26 25 25 25 24 23 23 23 23 23 23 23 22 22 21 21 21 20 20 20 19 19 19 19 19 18 18 18 18 18 18 18 18 18 18 18 18 18 18 18 17 17
26 26 26 27 28 28 26 26 26 25 24 24 24 23 23 23 23 23 23 22 22 21 21 21 20 20 20 20 19 19 19 19 18 18 18 18 18 18 18 18 18 18 18 18 18 17 17 17 17
26 26 26 27 27 27 27 25 25 24 24 24 24 23 23 23 23 22 22 22 22 21 21 20 20 20 20 19 19 19 18 18 18 18 18 18 18 18 18 18 18 18 18 18 18 18 17 17 17
25 27 28 28 26 24 25 23 23 23 23 23 23 23 23 23 23 22 22 22 22 21 21 20 20 20 19 19 19 19 19 19 19 19 18 18 18 18 18 18 18 18 18 18 18 18 17 18 18
26 28 28 28 26 24 24 23 22 22 22 22 22 23 23 23 23 22 22 22 22 21 21 20 20 19 19 19 19 18 19 19 19 18 18 18 18 18 18 18 18 18 18 18 18 17 17 18 18
28 27 25 22 21 22 23 23 22 21 22 22 22 23 23 23 23 22 22 22 21 21 20 20 19 19 19 19 18 18 18 18 18 18 18 18 18 18 18 18 18 18 18 18 18 17 17 17 18
27 23 21 22 21 21 22 23 22 23 23 23 22 22 22 22 22 22 22 21 21 21 20 20 19 19 19 18 18 18 18 18 18 18 18 18 18 18 18 18 18 18 18 18 18 17 17 17 17
25 22 21 22 22 21 22 23 22 23 23 23 23 23 22 22 22 22 22 21 21 20 20 19 19 19 18 18 18 18 18 18 18 18 18 18 18 18 18 18 18 18 18 17 17 17 17 17 17
26 23 21 20 22 22 21 22 23 23 22 22 22 22 21 22 22 22 21 21 21 20 20 20 19 19 18 18 18 18 18 17 17 17 18 18 18 18 17 17 17 17 17 17 17 17 17 17 17
26 24 20 20 21 21 22 22 21 22 21 21 21 20 21 21 21 21 21 21 20 20 20 19 19 18 18 18 18 17 17 17 17 17 17 17 17 17 17 17 17 17 17 17 17 17 17 17 17
26 25 22 19 19 20 21 21 22 21 21 21 20 20 21 21 21 21 21 20 20 20 20 19 19 18 18 18 18 17 17 17 17 17 17 17 17 17 17 17 17 17 17 17 17 17 17 17 17
25 24 21 21 21 19 20 20 22 21 21 21 20 20 20 20 21 21 20 20 20 19 19 19 19 18 18 18 18 17 17 17 17 17 17 17 17 17 17 17 17 17 17 17 16 16 16 16 16
Wind_Speed
5 4 1 1 4 4 2 3 8 9 7 8 10 10 9 7 5 7 6 15 18 15 17 20 20 20 19 19 18 18 18 17 17 17 17 17 18 18 17 18 18 18 18 18 18 18 18 18 19
2 2 2 3 5 3 2 5 11 10 9 12 12 12 10 9 10 11 9 15 17 16 17 19 21 20 20 19 18 18 17 17 16 16 16 17 17 17 17 17 17 17 17 17 16 17 17 17 17
2 0 3 4 2 1 1 6 12 12 9 8 7 7 6 9 11 7 11 17 15 14 17 20 21 20 20 19 18 17 17 16 16 16 16 16 16 16 17 17 16 16 16 16 15 15 15 15 15
1 3 4 4 2 3 4 5 11 13 10 9 9 7 5 7 8 14 19 17 16 12 16 20 21 20 20 19 18 17 16 16 16 16 15 15 16 16 16 16 16 16 15 15 14 14 13 13 13
3 4 5 3 4 2 1 6 12 13 7 9 10 7 6 6 19 22 19 18 16 12 14 19 21 20 20 19 18 17 16 16 16 15 15 15 15 15 16 15 15 15 14 14 13 12 12 11 11
4 4 4 2 4 3 1 7 12 16 13 10 10 7 5 14 20 19 18 16 16 14 13 17 20 20 19 19 18 17 16 16 16 15 15 15 15 15 15 15 15 14 14 12 11 11 10 10 9
4 3 1 2 1 0 5 7 11 14 11 7 9 8 7 13 17 18 16 15 14 13 12 13 16 18 19 18 18 17 17 16 15 15 15 15 15 15 15 14 14 13 13 11 10 9 9 8 8
5 4 1 2 2 2 5 5 10 15 10 10 8 9 10 14 16 16 15 14 13 11 10 9 12 14 15 16 17 17 16 16 15 15 15 15 15 14 14 13 13 13 12 10 9 8 7 6 6
3 4 2 4 4 2 6 8 6 7 10 5 4 7 15 20 20 18 15 12 11 11 9 8 9 11 13 13 15 16 16 15 15 14 15 14 12 13 13 12 12 12 11 10 8 7 5 4 4
4 4 7 6 5 4 7 10 9 7 8 6 9 10 17 20 20 20 18 16 14 13 11 10 9 10 12 12 13 12 12 13 12 12 13 12 11 11 11 12 11 11 10 9 7 6 4 3 2
5 7 6 6 6 4 5 7 7 11 7 11 17 18 19 19 18 18 17 17 17 15 14 12 11 11 10 8 11 9 9 11 11 12 12 11 10 9 9 9 9 9 8 6 5 4 3 3 2
4 8 6 4 3 3 5 6 6 7 9 14 18 20 19 18 17 17 17 16 15 16 15 14 13 11 10 10 9 9 8 8 9 11 13 11 7 6 7 6 7 7 6 5 5 4 4 3 3
5 5 5 3 1 3 5 6 7 6 11 15 16 16 16 15 14 13 14 15 14 13 14 14 13 13 10 9 7 9 7 8 10 11 13 13 8 6 6 6 7 7 7 6 5 5 4 3 3
6 6 5 2 1 2 7 5 6 7 14 16 15 14 14 14 13 12 13 14 14 14 14 12 12 12 10 8 6 7 9 10 10 11 13 14 12 9 7 5 6 6 8 8 7 5 4 3 3
5 6 7 2 2 1 6 4 6 11 16 16 15 13 12 12 13 14 15 14 14 14 14 13 12 11 11 10 9 8 10 11 9 10 13 14 14 12 8 5 5 6 8 7 5 3 3 3 3
6 4 3 5 3 3 7 4 6 12 18 15 14 12 12 11 12 13 14 12 12 14 14 13 13 12 11 9 8 7 9 10 9 11 12 13 14 14 9 5 5 7 6 5 3 3 3 2 3
5 2 4 6 4 3 6 5 7 11 18 16 14 12 12 11 10 11 14 13 12 14 14 12 11 11 10 8 6 7 7 7 9 11 10 11 12 13 10 6 5 7 5 3 4 3 3 3 3
5 4 4 5 4 3 5 6 9 12 15 15 13 12 11 12 11 12 13 12 12 12 12 11 10 10 8 6 5 4 4 5 7 8 10 12 12 12 10 6 6 6 4 3 3 3 3 3 3
6 7 9 8 5 3 6 7 10 12 12 12 12 12 11 10 8 9 11 12 11 11 10 11 11 10 8 5 5 5 5 5 5 6 10 13 12 12 9 5 5 5 5 5 5 4 3 2 2
9 8 8 7 4 1 5 6 7 10 13 14 14 13 12 10 8 8 9 11 11 12 11 10 11 11 9 6 5 4 4 4 5 5 7 12 12 11 10 7 6 5 5 6 5 4 3 2 3
9 7 6 5 4 4 4 3 1 3 5 8 10 12 12 14 13 12 11 10 10 11 11 10 10 10 9 7 5 4 3 2 2 4 5 7 11 12 9 8 6 6 6 6 6 6 6 4 2
9 9 6 3 2 3 3 1 5 2 3 8 10 10 11 11 12 12 11 10 11 10 10 9 9 9 8 8 7 7 6 5 5 5 5 6 9 10 10 9 8 6 6 6 6 6 4 5 3
9 8 3 1 2 2 3 3 5 0 4 7 9 12 12 11 12 12 11 10 9 9 9 9 9 9 8 8 8 7 6 5 4 4 5 6 6 8 9 10 8 7 6 7 7 6 5 5 5
6 3 7 7 6 2 4 3 4 4 8 9 9 11 11 10 10 9 8 8 7 7 8 8 9 8 8 8 8 7 7 6 5 5 6 6 5 6 8 8 8 7 6 7 7 6 7 5 5
2 5 4 5 4 5 4 3 7 7 7 10 12 11 10 10 10 9 8 8 8 8 8 7 8 7 7 8 7 7 7 7 7 7 7 7 5 5 8 8 7 6 6 7 7 7 7 6 5
6 10 8 5 5 5 4 3 5 2 5 8 10 10 10 9 9 9 9 8 8 9 8 8 7 6 7 7 7 6 6 5 5 6 6 7 6 7 7 8 8 7 7 7 7 6 6 6 6
7 7 10 8 2 0 4 3 5 4 7 7 8 8 9 10 10 9 8 8 7 7 7 8 7 6 5 6 6 6 6 5 5 5 5 5 5 6 7 7 8 7 7 7 7 6 6 6 6
10 9 7 6 4 3 3 2 4 3 5 6 6 6 6 7 8 8 8 7 6 6 6 6 6 6 4 4 5 5 4 5 4 4 4 4 5 5 6 7 7 7 7 6 6 5 5 5 5
6 6 6 6 6 6 3 6 5 9 9 9 8 6 7 7 8 8 6 6 6 6 6 6 5 4 3 3 3 2 2 2 2 2 3 3 3 4 5 6 6 6 6 6 6 5 6 6 5
9 10 9 6 5 6 5 5 3 6 8 9 9 7 7 7 7 8 8 7 6 5 5 6 5 5 4 3 3 3 2 2 2 2 2 2 2 3 3 4 5 5 5 6 6 6 5 5 5
Wind_Direction
247 235 170 48 43 42 69 102 95 73 54 65 78 88 89 70 109 129 127 135 134 137 139 138 135 132 127 123 120 117 114 112 110 108 107 107 108 109 110 110 109 109 109 108 108 107 108 108 109
246 211 88 48 63 44 44 94 94 92 106 99 80 81 77 71 87 108 120 135 134 135 136 138 137 134 131 127 125 122 120 118 116 114 112 111 112 113 114 113 112 112 111 111 110 111 111 110 110
274 141 79 64 64 165 152 106 109 105 104 94 87 72 77 108 113 114 135 137 132 132 135 140 138 135 133 131 129 126 125 124 122 120 118 116 115 115 116 116 115 114 113 113 113 113 113 111 110
37 46 53 66 281 238 181 146 118 107 88 75 89 72 70 107 117 130 136 135 129 130 136 141 139 137 136 135 134 132 131 129 127 124 123 121 119 118 119 119 118 118 117 116 117 116 115 112 109
70 70 48 10 323 323 135 121 120 106 92 86 88 89 66 80 118 130 135 134 132 132 136 141 141 141 140 139 138 136 135 134 131 129 127 125 123 122 123 123 122 121 121 120 120 119 117 115 109
54 67 66 359 323 322 103 124 109 104 107 104 100 97 85 125 128 136 137 137 136 136 136 142 144 144 144 143 142 142 141 139 137 134 132 130 128 128 127 126 126 125 125 124 124 123 120 115 105
111 87 166 245 271 272 138 131 116 118 123 134 132 109 118 142 140 140 138 137 136 137 139 143 148 148 148 147 146 146 145 143 141 140 138 136 134 134 133 132 131 131 131 130 130 129 124 116 103
146 102 331 279 215 223 139 114 119 125 127 136 137 130 149 157 143 135 135 135 136 140 145 145 146 146 148 150 150 150 149 148 147 146 145 143 142 141 139 138 138 138 139 139 139 137 132 121 107
118 86 243 234 199 193 137 115 110 107 121 138 131 132 148 145 139 135 136 134 141 149 155 151 146 147 148 151 155 155 154 154 152 152 151 147 145 145 146 147 146 146 147 148 149 149 144 127 109
125 167 224 223 201 173 153 136 141 118 109 103 106 122 139 141 143 146 151 153 157 162 167 162 157 156 157 160 154 155 156 156 156 157 152 151 153 155 156 158 155 154 154 156 161 163 156 134 100
183 205 231 236 225 183 140 137 135 131 138 155 149 150 150 148 150 154 160 163 164 169 170 167 166 165 167 155 157 159 159 161 164 165 162 159 161 163 159 161 161 161 162 164 170 173 180 180 174
249 260 248 234 221 171 145 135 128 147 164 160 154 152 153 155 159 163 166 168 167 172 174 171 172 171 171 161 166 167 167 173 174 176 172 165 161 160 163 166 172 173 174 178 184 202 212 219 219
268 273 272 254 209 167 121 128 128 134 140 143 145 149 156 162 163 166 167 168 169 173 174 175 174 174 169 163 172 173 176 182 182 179 180 174 167 166 169 173 181 187 187 190 192 201 220 233 221
271 289 298 283 251 139 123 126 121 142 139 141 149 159 166 168 166 165 166 169 172 172 175 175 174 173 166 170 179 177 177 183 183 182 184 180 174 170 169 173 181 188 192 193 191 191 190 191 160
319 333 335 293 243 195 102 83 159 156 144 148 158 166 170 173 171 172 173 171 170 169 169 170 170 168 169 173 179 178 177 180 184 188 186 179 173 171 171 172 178 188 193 189 178 173 160 153 143
348 1 327 281 215 205 122 181 188 156 153 158 166 172 176 183 179 173 171 167 164 162 164 170 171 170 171 169 172 172 173 175 180 185 183 177 175 173 170 169 177 180 176 164 155 147 134 127 130
351 309 272 289 243 179 134 177 184 172 161 167 171 174 180 184 182 174 169 165 166 162 163 168 165 170 172 167 165 165 164 172 177 180 178 179 177 175 170 171 174 165 153 153 164 140 141 145 147
262 296 298 284 263 160 155 174 176 180 167 173 173 174 180 182 183 175 166 165 164 163 164 167 166 169 167 158 145 145 150 168 174 177 180 179 180 175 167 170 173 161 147 153 149 143 146 154 160
259 285 285 278 262 159 164 171 180 177 173 172 174 175 176 181 175 171 167 165 160 162 164 167 167 169 165 162 160 159 170 172 177 183 183 181 180 175 169 172 170 164 165 170 162 150 150 148 125
263 275 283 297 299 126 167 186 179 175 182 178 175 174 169 164 160 168 163 167 168 168 174 173 173 173 173 173 167 162 158 173 179 184 183 183 181 178 179 172 176 173 169 171 166 151 148 157 146
272 253 252 262 328 20 99 355 245 195 166 170 169 169 167 167 166 174 175 176 171 173 176 179 178 175 173 165 147 134 118 122 161 185 191 192 185 185 183 180 176 178 174 178 180 165 156 168 187
264 261 251 265 45 304 102 207 280 212 167 175 177 167 170 169 170 178 177 179 181 180 174 171 172 171 170 164 164 165 172 183 194 189 188 190 188 186 188 186 183 182 182 183 189 177 166 158 177
235 258 270 260 111 19 12 120 282 220 177 191 185 176 179 177 172 176 179 178 175 169 171 169 170 172 171 171 174 175 184 190 179 175 180 193 195 192 190 186 185 185 184 188 191 180 176 170 173
233 355 17 41 67 8 260 149 257 228 203 187 181 176 174 169 165 165 167 155 148 151 162 167 169 175 175 176 179 179 183 186 181 187 192 198 200 201 198 188 185 185 184 187 193 190 185 185 181
125 88 27 357 11 257 267 158 238 238 191 170 165 169 167 161 159 157 152 152 153 155 163 168 169 176 178 177 182 184 186 190 196 197 199 198 199 204 204 197 191 191 190 190 188 189 194 189 183
188 142 159 191 218 278 330 222 266 271 138 139 141 151 159 159 156 158 158 155 161 164 166 166 168 177 179 182 190 191 191 197 205 204 199 201 206 209 203 197 196 195 193 197 190 195 199 192 194
173 177 172 145 172 314 300 307 338 61 96 114 122 134 153 162 160 158 153 151 154 158 165 166 167 172 178 185 193 194 196 202 208 206 201 203 205 208 202 197 201 201 198 197 190 196 200 193 199
171 165 110 127 165 236 283 257 214 184 150 138 128 139 148 154 153 147 149 151 150 152 152 150 159 170 173 176 185 189 193 200 199 194 198 200 203 203 192 195 196 198 197 193 188 190 194 192 205
180 153 133 139 157 160 213 264 234 183 162 146 138 147 147 142 139 138 139 142 145 141 138 145 155 149 150 156 156 153 164 175 172 181 201 206 204 191 190 190 188 192 191 186 182 187 190 197 210
179 181 154 161 210 163 163 256 306 157 142 133 130 130 135 131 137 132 130 124 125 121 130 140 145 140 141 141 140 148 150 142 148 182 196 185 187 190 194 187 185 190 187 181 179 188 188 195 210
Height
1504 1503 1502 1502 1504 1513 1513 1503 1497 1498 1497 1497 1497 1498 1502 1507 1513 1523 1522 1523 1527 1529 1532 1534 1536 1537 1538 1539 1540 1541 1542 1543 1544 1545 1546 1547 1547 1548 1549 1550 1550 1551 1552 1553 1553 1554 1555 1556 1557
1503 1503 1503 1503 1513 1526 1516 1502 1501 1500 1500 1499 1501 1502 1505 1511 1513 1517 1521 1525 1528 1530 1532 1535 1537 1538 1540 1541 1542 1543 1544 1545 1546 1547 1548 1549 1549 1550 1551 1552 1552 1553 1554 1555 1556 1556 1557 1558 1559
1503 1503 1505 1508 1517 1523 1515 1502 1500 1501 1501 1499 1503 1506 1509 1514 1516 1519 1522 1526 1529 1531 1533 1536 1537 1539 1541 1542 1543 1544 1545 1546 1548 1549 1549 1550 1551 1552 1553 1554 1554 1555 1556 1557 1558 1559 1560 1561 1562
1504 1505 1507 1514 1518 1509 1504 1501 1500 1501 1503 1503 1504 1509 1513 1517 1517 1519 1523 1527 1529 1532 1534 1536 1538 1540 1542 1543 1544 1546 1547 1548 1549 1550 1551 1552 1553 1554 1554 1555 1556 1557 1558 1559 1560 1561 1562 1563 1564
1504 1505 1513 1520 1514 1504 1498 1498 1498 1500 1503 1506 1505 1511 1516 1518 1519 1522 1525 1528 1530 1532 1535 1537 1539 1541 1542 1544 1545 1547 1548 1549 1550 1552 1553 1553 1554 1555 1556 1557 1558 1559 1560 1561 1563 1563 1565 1566 1566
1506 1507 1522 1526 1515 1503 1500 1498 1497 1500 1504 1507 1509 1513 1520 1520 1521 1524 1527 1529 1532 1533 1536 1538 1540 1542 1543 1544 1546 1547 1549 1550 1551 1553 1554 1555 1556 1557 1558 1559 1560 1561 1562 1563 1565 1566 1567 1568 1569
1506 1511 1519 1518 1513 1506 1501 1498 1497 1500 1504 1507 1508 1513 1521 1523 1523 1525 1528 1530 1533 1535 1536 1538 1540 1542 1543 1545 1546 1548 1549 1551 1552 1554 1555 1556 1557 1558 1560 1561 1562 1563 1564 1565 1566 1568 1569 1570 1571
1505 1511 1516 1515 1511 1506 1498 1499 1500 1498 1503 1507 1508 1511 1519 1522 1524 1527 1529 1531 1533 1535 1537 1539 1541 1542 1544 1545 1547 1548 1550 1551 1553 1554 1556 1557 1558 1560 1561 1562 1563 1564 1566 1567 1568 1570 1571 1572 1573
1505 1515 1520 1512 1507 1501 1497 1499 1501 1501 1503 1506 1508 1510 1515 1521 1524 1526 1529 1532 1534 1536 1538 1540 1541 1543 1544 1546 1547 1549 1550 1552 1554 1555 1556 1558 1559 1561 1562 1563 1565 1566 1567 1568 1570 1571 1573 1574 1575
1503 1515 1509 1498 1495 1495 1495 1496 1499 1503 1504 1507 1509 1513 1517 1521 1523 1525 1527 1530 1533 1535 1538 1539 1541 1543 1544 1546 1548 1549 1551 1552 1554 1556 1557 1559 1560 1562 1563 1564 1566 1567 1568 1570 1571 1572 1574 1575 1576
1499 1502 1496 1493 1491 1491 1493 1496 1497 1500 1505 1505 1507 1512 1517 1520 1523 1524 1527 1529 1531 1534 1537 1539 1541 1543 1544 1546 1548 1549 1551 1553 1554 1556 1557 1559 1560 1562 1564 1565 1567 1568 1570 1571 1572 1574 1575 1576 1577
1497 1493 1491 1490 1489 1489 1490 1493 1497 1498 1500 1502 1505 1509 1514 1518 1521 1523 1526 1529 1532 1534 1536 1538 1541 1542 1544 1546 1547 1549 1551 1552 1554 1556 1557 1559 1560 1562 1564 1566 1568 1569 1570 1572 1573 1574 1576 1577 1578
1494 1491 1489 1488 1488 1488 1489 1492 1495 1499 1501 1504 1507 1511 1514 1517 1520 1523 1526 1529 1531 1533 1535 1537 1540 1541 1544 1546 1547 1549 1551 1552 1554 1555 1557 1559 1560 1562 1564 1566 1568 1570 1571 1572 1574 1575 1576 1577 1578
1492 1489 1488 1487 1487 1488 1489 1493 1495 1500 1501 1504 1507 1511 1513 1516 1519 1522 1524 1526 1529 1531 1534 1537 1539 1541 1543 1545 1547 1549 1550 1552 1553 1555 1556 1558 1560 1562 1564 1566 1568 1569 1571 1573 1574 1576 1577 1577 1578
1490 1490 1489 1487 1486 1488 1490 1497 1496 1497 1500 1504 1507 1510 1513 1515 1518 1520 1522 1524 1527 1529 1532 1535 1538 1540 1542 1544 1546 1547 1549 1551 1553 1554 1556 1558 1560 1561 1563 1565 1567 1569 1571 1573 1574 1576 1577 1578 1579
1491 1496 1501 1490 1485 1486 1494 1506 1497 1496 1498 1502 1505 1509 1511 1514 1516 1519 1521 1523 1526 1528 1531 1534 1537 1539 1541 1543 1544 1546 1548 1550 1551 1553 1555 1557 1559 1561 1563 1565 1567 1569 1570 1572 1574 1575 1576 1578 1578
1502 1508 1504 1494 1483 1484 1492 1501 1496 1495 1496 1499 1503 1506 1509 1512 1516 1518 1520 1523 1525 1527 1529 1532 1535 1537 1539 1541 1543 1544 1546 1548 1550 1552 1554 1556 1558 1560 1562 1564 1566 1568 1569 1571 1573 1574 1576 1577 1578
1512 1507 1503 1498 1485 1484 1491 1495 1494 1495 1496 1498 1500 1504 1508 1510 1513 1516 1519 1521 1523 1525 1528 1530 1533 1535 1538 1540 1541 1542 1544 1546 1548 1550 1552 1554 1556 1558 1561 1563 1565 1566 1568 1570 1572 1573 1575 1576 1577
1501 1503 1503 1493 1482 1485 1490 1492 1492 1494 1496 1497 1499 1502 1506 1508 1511 1515 1518 1520 1522 1524 1526 1527 1530 1533 1535 1537 1538 1540 1542 1544 1546 1548 1550 1552 1555 1557 1559 1561 1563 1565 1567 1568 1570 1572 1573 1575 1576
1498 1502 1500 1490 1480 1484 1490 1491 1489 1491 1492 1492 1495 1499 1503 1507 1511 1513 1516 1518 1519 1521 1524 1525 1527 1530 1532 1534 1537 1538 1540 1542 1544 1546 1548 1550 1553 1555 1557 1559 1561 1563 1565 1567 1568 1570 1571 1573 1574
1495 1498 1495 1493 1486 1484 1490 1499 1495 1491 1492 1494 1495 1497 1501 1503 1506 1510 1513 1515 1517 1519 1522 1524 1526 1527 1530 1532 1534 1537 1539 1541 1542 1544 1546 1548 1550 1553 1555 1557 1559 1561 1563 1564 1566 1568 1569 1570 1572
1498 1484 1484 1486 1496 1506 1498 1519 1504 1495 1494 1494 1495 1497 1499 1502 1504 1508 1510 1512 1514 1516 1519 1521 1523 1526 1527 1529 1531 1533 1535 1536 1538 1541 1543 1545 1548 1550 1552 1554 1556 1558 1560 1562 1564 1565 1567 1568 1570
1485 1477 1480 1484 1494 1506 1504 1515 1512 1498 1499 1495 1494 1495 1497 1499 1502 1505 1507 1509 1511 1514 1516 1519 1521 1523 1525 1527 1528 1530 1533 1535 1537 1539 1541 1543 1545 1547 1549 1551 1553 1555 1557 1559 1561 1563 1564 1566 1567
1474 1479 1486 1495 1506 1521 1509 1513 1515 1502 1495 1492 1492 1492 1494 1497 1500 1503 1506 1508 1509 1511 1513 1517 1519 1521 1523 1524 1526 1528 1530 1532 1534 1536 1538 1540 1542 1544 1546 1548 1550 1552 1554 1556 1558 1560 1562 1563 1565
1477 1500 1522 1523 1532 1527 1507 1509 1509 1489 1484 1485 1488 1490 1493 1496 1499 1502 1504 1506 1508 1510 1512 1515 1517 1519 1520 1522 1523 1525 1528 1530 1531 1533 1535 1537 1538 1540 1542 1545 1546 1548 1550 1553 1555 1557 1559 1560 1562
1481 1496 1524 1533 1535 1526 1509 1511 1499 1484 1483 1484 1486 1489 1493 1496 1498 1501 1504 1505 1508 1510 1511 1513 1515 1517 1518 1520 1521 1523 1525 1527 1529 1531 1532 1533 1535 1537 1539 1541 1543 1545 1547 1549 1551 1553 1555 1557 1559
1479 1490 1493 1513 1518 1525 1520 1506 1494 1486 1487 1488 1490 1492 1494 1495 1497 1500 1503 1506 1508 1510 1511 1512 1514 1515 1517 1519 1519 1520 1523 1524 1526 1527 1529 1530 1532 1534 1536 1537 1539 1541 1543 1545 1548 1550 1552 1553 1555
1467 1476 1498 1513 1527 1533 1521 1513 1509 1496 1492 1491 1493 1495 1496 1497 1498 1501 1503 1506 1508 1510 1511 1512 1514 1515 1516 1517 1518 1519 1521 1522 1523 1524 1525 1526 1528 1530 1531 1533 1535 1537 1539 1541 1543 1545 1547 1549 1551
1470 1477 1489 1506 1513 1527 1531 1519 1490 1489 1487 1490 1493 1495 1496 1498 1500 1501 1504 1507 1508 1510 1511 1513 1514 1515 1515 1516 1517 1518 1519 1520 1521 1521 1522 1523 1524 1525 1527 1529 1531 1532 1535 1537 1538 1540 1543 1545 1546
1461 1470 1484 1504 1509 1514 1521 1516 1485 1485 1486 1489 1492 1495 1497 1498 1500 1502 1504 1507 1510 1511 1512 1513 1514 1515 1515 1516 1516 1516 1517 1517 1518 1518 1519 1520 1520 1522 1523 1524 1526 1528 1530 1532 1534 1536 1538 1540 1542